Regional Weather Roundup
Issued by NWS Goodland, KS

Home | Current Version | Previous Version | Graphics & Text | Print | Product List | Glossary On
Versions: 1 2 3 4 5 6 7 8 9 10 11 12 13 14 15 16 17 18 19 20 21 22 23 24 25 26 27 28 29 30 31 32 33 34 35 36 37 38 39 40 41 42 43 44 45 46 47 48 49 50
000
ASUS43 KGLD 200259
RWRGLD

GOODLAND FORECAST AREA HOURLY WEATHER ROUNDUP
NATIONAL WEATHER SERVICE GOODLAND KS
900 PM MDT TUE AUG 19 2014

...OFFICIAL OBSERVATIONS...

CITY           SKY/WX    TMP DP  RH WIND       PRES   REMARKS
GOODLAND KS    CLOUDY    79  52  38 S7        29.85R
HILL CITY KS   CLEAR     82  62  50 S9        29.77R
IMPERIAL NEB   TSTM      71  59  65 W28G45    29.86R
MCCOOK NEB     PTCLDY    85  59  41 S10       29.76R
AKRON CO       CLOUDY    67  57  70 NE8       29.87F
BURLINGTON CO  CLOUDY    80  46  30 SW9       29.85R
LIMON CO       CLOUDY    69  48  47 N5        29.95F
$$

...UNOFFICIAL OBSERVATIONS...

CITY           SKY/WX    TMP DP  RH WIND       PRES   REMARKS
COLBY KS       CLEAR     84  61  45 S16G22    29.82R
LENORA KS        N/A     80  32  17 CALM        N/A
NORTON KS      CLEAR     81  54  39 SE9       29.76S
SHARON SPRINGS   N/A     82  50  32 S9          N/A
KIT CARSON CO    N/A     78  55  44 MISG        N/A
YUMA CO          N/A     66  59  79 NE12        N/A
$$


USA.gov is the U.S. government's official web portal to all federal, state and local government web resources and services.